Time,TemperatureF,DewpointF,PressureIn,WindDirection,WindDirectionDegrees,WindSpeedMPH,WindSpeedGustMPH,Humidity,HourlyPrecipIn,Conditions,Clouds,dailyrainin,SolarRadiationWatts/m^2,SoftwareType,DateUTC
2013-07-16 00:02:00,75.4,72.0,30.23,SE,138,0.0,1.0,90,0.00,,,0.02,0,weatherlink.com 1.10,2013-07-16 05:02:00,
2013-07-16 00:17:00,75.1,72.0,30.23,SE,138,0.0,0.0,91,0.00,,,0.00,0,weatherlink.com 1.10,2013-07-16 05:17:00,
2013-07-16 00:32:00,74.8,72.0,30.23,SE,138,0.0,0.0,92,0.00,,,0.00,0,weatherlink.com 1.10,2013-07-16 05:32:00,
2013-07-16 00:47:00,74.8,72.0,30.23,SE,138,0.0,0.0,92,0.00,,,0.00,0,weatherlink.com 1.10,2013-07-16 05:47:00,
2013-07-16 01:02:00,74.7,72.0,30.23,SE,138,0.0,0.0,92,0.00,,,0.00,0,weatherlink.com 1.10,2013-07-16 06:02:00,
2013-07-16 01:17:00,74.5,72.0,30.23,SE,138,0.0,0.0,92,0.00,,,0.00,0,weatherlink.com 1.10,2013-07-16 06:17:00,
2013-07-16 01:32:00,74.3,72.0,30.23,SE,138,0.0,0.0,93,0.00,,,0.00,0,weatherlink.com 1.10,2013-07-16 06:32:00,
2013-07-16 01:47:00,73.9,72.0,30.23,SE,138,0.0,0.0,93,0.00,,,0.00,0,weatherlink.com 1.10,2013-07-16 06:47:00,
2013-07-16 02:02:00,73.4,71.0,30.23,SE,138,0.0,0.0,93,0.00,,,0.00,0,weatherlink.com 1.10,2013-07-16 07:02:00,
2013-07-16 02:17:00,73.0,71.0,30.23,SE,138,0.0,0.0,94,0.00,,,0.00,0,weatherlink.com 1.10,2013-07-16 07:17:00,
2013-07-16 02:32:00,72.7,71.0,30.23,SE,138,0.0,0.0,94,0.00,,,0.00,0,weatherlink.com 1.10,2013-07-16 07:32:00,
2013-07-16 02:47:00,72.4,71.0,30.24,SE,138,0.0,0.0,95,0.00,,,0.00,0,weatherlink.com 1.10,2013-07-16 07:47:00,
2013-07-16 03:02:00,72.3,71.0,30.24,SE,138,0.0,0.0,96,0.00,,,0.00,0,weatherlink.com 1.10,2013-07-16 08:02:00,
2013-07-16 03:17:00,72.1,71.0,30.24,SE,138,0.0,0.0,96,0.00,,,0.00,0,weatherlink.com 1.10,2013-07-16 08:17:00,
2013-07-16 03:32:00,71.8,71.0,30.23,SE,138,0.0,0.0,96,0.00,,,0.00,0,weatherlink.com 1.10,2013-07-16 08:32:00,
2013-07-16 03:47:00,71.9,71.0,30.24,SE,138,0.0,0.0,96,0.00,,,0.00,0,weatherlink.com 1.10,2013-07-16 08:47:00,
2013-07-16 04:02:00,71.9,71.0,30.24,SE,138,0.0,0.0,97,0.00,,,0.00,0,weatherlink.com 1.10,2013-07-16 09:02:00,
2013-07-16 04:17:00,71.9,71.0,30.24,SE,138,0.0,0.0,96,0.00,,,0.00,0,weatherlink.com 1.10,2013-07-16 09:17:00,
2013-07-16 04:32:00,71.8,71.0,30.24,SE,138,0.0,0.0,97,0.00,,,0.00,0,weatherlink.com 1.10,2013-07-16 09:32:00,
2013-07-16 04:47:00,71.8,71.0,30.24,SE,138,0.0,0.0,97,0.00,,,0.00,0,weatherlink.com 1.10,2013-07-16 09:47:00,
2013-07-16 05:02:00,71.8,71.0,30.24,SE,138,0.0,0.0,97,0.00,,,0.00,0,weatherlink.com 1.10,2013-07-16 10:02:00,
2013-07-16 05:17:00,71.6,71.0,30.24,SE,138,0.0,0.0,97,0.00,,,0.00,0,weatherlink.com 1.10,2013-07-16 10:17:00,
2013-07-16 05:32:00,71.4,71.0,30.25,SE,138,0.0,0.0,97,0.00,,,0.00,0,weatherlink.com 1.10,2013-07-16 10:32:00,
2013-07-16 05:47:00,71.4,71.0,30.25,SE,138,0.0,0.0,97,0.00,,,0.00,7,weatherlink.com 1.10,2013-07-16 10:47:00,
2013-07-16 06:02:00,71.4,71.0,30.25,SE,138,0.0,0.0,97,0.00,,,0.00,14,weatherlink.com 1.10,2013-07-16 11:02:00,
2013-07-16 06:17:00,71.5,71.0,30.25,SE,138,0.0,0.0,97,0.00,,,0.00,21,weatherlink.com 1.10,2013-07-16 11:17:00,
2013-07-16 06:32:00,71.8,71.0,30.26,SE,138,0.0,0.0,98,0.00,,,0.00,19,weatherlink.com 1.10,2013-07-16 11:32:00,
2013-07-16 06:47:00,72.3,72.0,30.26,SE,138,0.0,0.0,98,0.00,,,0.00,88,weatherlink.com 1.10,2013-07-16 11:47:00,
2013-07-16 07:03:00,73.8,73.0,30.26,SE,138,0.0,0.0,98,0.00,,,0.00,123,weatherlink.com 1.10,2013-07-16 12:03:00,
2013-07-16 07:18:00,75.8,75.0,30.26,West,275,0.0,1.0,96,0.00,,,0.00,167,weatherlink.com 1.10,2013-07-16 12:18:00,
2013-07-16 07:33:00,77.2,75.0,30.26,West,275,0.0,0.0,92,0.00,,,0.00,202,weatherlink.com 1.10,2013-07-16 12:33:00,
2013-07-16 07:48:00,78.1,75.0,30.26,West,275,1.0,1.0,91,0.00,,,0.00,243,weatherlink.com 1.10,2013-07-16 12:48:00,
2013-07-16 08:03:00,78.8,75.0,30.26,SSW,192,0.0,2.0,89,0.00,,,0.00,292,weatherlink.com 1.10,2013-07-16 13:03:00,
2013-07-16 08:18:00,79.9,77.0,30.26,SSW,200,0.0,1.0,89,0.00,,,0.00,332,weatherlink.com 1.10,2013-07-16 13:18:00,
2013-07-16 08:33:00,80.6,77.0,30.26,SW,232,1.0,2.0,87,0.00,,,0.00,380,weatherlink.com 1.10,2013-07-16 13:33:00,
2013-07-16 08:48:00,81.1,76.0,30.26,SW,232,0.0,3.0,85,0.00,,,0.00,422,weatherlink.com 1.10,2013-07-16 13:48:00,
2013-07-16 09:03:00,81.6,77.0,30.26,SW,222,0.0,2.0,86,0.00,,,0.00,457,weatherlink.com 1.10,2013-07-16 14:03:00,
2013-07-16 09:18:00,82.3,77.0,30.26,WSW,237,1.0,3.0,85,0.00,,,0.00,499,weatherlink.com 1.10,2013-07-16 14:18:00,
2013-07-16 09:33:00,82.8,78.0,30.26,SW,234,2.0,4.0,86,0.00,,,0.00,540,weatherlink.com 1.10,2013-07-16 14:33:00,
2013-07-16 09:48:00,83.8,79.0,30.26,WSW,253,1.0,4.0,84,0.00,,,0.00,568,weatherlink.com 1.10,2013-07-16 14:48:00,
2013-07-16 10:03:00,84.3,78.0,30.26,WSW,247,1.0,4.0,82,0.00,,,0.00,610,weatherlink.com 1.10,2013-07-16 15:03:00,
2013-07-16 10:19:00,85.0,79.0,30.26,WSW,243,1.0,5.0,83,0.00,,,0.00,686,weatherlink.com 1.10,2013-07-16 15:19:00,
2013-07-16 10:49:00,86.0,79.0,30.26,WSW,247,0.0,5.0,79,0.00,,,0.00,754,weatherlink.com 1.10,2013-07-16 15:49:00,
2013-07-16 11:04:00,86.1,78.0,30.25,SW,221,1.0,5.0,77,0.00,,,0.00,200,weatherlink.com 1.10,2013-07-16 16:04:00,
2013-07-16 11:19:00,87.0,79.0,30.25,SSW,200,0.0,2.0,76,0.00,,,0.00,909,weatherlink.com 1.10,2013-07-16 16:19:00,
2013-07-16 11:34:00,86.5,77.0,30.25,WSW,240,3.0,6.0,74,0.00,,,0.00,209,weatherlink.com 1.10,2013-07-16 16:34:00,
2013-07-16 11:49:00,85.7,77.0,30.25,WSW,250,2.0,5.0,76,0.00,,,0.00,237,weatherlink.com 1.10,2013-07-16 16:49:00,
2013-07-16 12:04:00,85.3,78.0,30.25,SW,231,2.0,4.0,78,0.00,,,0.00,889,weatherlink.com 1.10,2013-07-16 17:04:00,
2013-07-16 12:19:00,87.0,78.0,30.24,WNW,282,0.0,5.0,74,0.00,,,0.00,846,weatherlink.com 1.10,2013-07-16 17:19:00,
2013-07-16 12:34:00,88.4,79.0,30.24,WSW,251,2.0,5.0,73,0.00,,,0.00,891,weatherlink.com 1.10,2013-07-16 17:34:00,
2013-07-16 12:49:00,88.5,80.0,30.24,WSW,245,5.0,5.0,75,0.00,,,0.00,886,weatherlink.com 1.10,2013-07-16 17:49:00,
2013-07-16 13:04:00,88.2,77.0,30.24,WSW,246,1.0,6.0,70,0.00,,,0.00,272,weatherlink.com 1.10,2013-07-16 18:04:00,
2013-07-16 13:19:00,89.1,77.0,30.24,WSW,242,2.0,5.0,68,0.00,,,0.00,918,weatherlink.com 1.10,2013-07-16 18:19:00,
2013-07-16 13:34:00,90.2,77.0,30.23,SSE,167,0.0,1.0,65,0.00,,,0.00,962,weatherlink.com 1.10,2013-07-16 18:34:00,
2013-07-16 13:49:00,90.1,78.0,30.23,SSW,210,2.0,5.0,67,0.00,,,0.00,962,weatherlink.com 1.10,2013-07-16 18:49:00,
2013-07-16 14:04:00,89.1,79.0,30.23,SSW,213,0.0,3.0,72,0.00,,,0.00,925,weatherlink.com 1.10,2013-07-16 19:04:00,
2013-07-16 14:19:00,89.8,80.0,30.23,SW,220,0.0,3.0,72,0.00,,,0.00,860,weatherlink.com 1.10,2013-07-16 19:19:00,
2013-07-16 14:34:00,90.6,78.0,30.22,SW,216,0.0,3.0,67,0.00,,,0.00,814,weatherlink.com 1.10,2013-07-16 19:34:00,
2013-07-16 14:49:00,91.1,79.0,30.22,WSW,253,1.0,5.0,67,0.00,,,0.00,816,weatherlink.com 1.10,2013-07-16 19:49:00,
2013-07-16 15:04:00,90.9,79.0,30.22,SW,222,1.0,4.0,68,0.00,,,0.00,796,weatherlink.com 1.10,2013-07-16 20:04:00,
2013-07-16 15:19:00,90.8,79.0,30.22,SSW,206,1.0,2.0,68,0.00,,,0.00,849,weatherlink.com 1.10,2013-07-16 20:19:00,
2013-07-16 15:34:00,90.4,79.0,30.21,WSW,238,0.0,3.0,69,0.00,,,0.00,751,weatherlink.com 1.10,2013-07-16 20:34:00,
2013-07-16 15:49:00,89.3,78.0,30.21,WSW,238,1.0,5.0,70,0.00,,,0.00,765,weatherlink.com 1.10,2013-07-16 20:49:00,
2013-07-16 16:04:00,89.6,78.0,30.21,SW,214,0.0,3.0,68,0.00,,,0.00,179,weatherlink.com 1.10,2013-07-16 21:04:00,
2013-07-16 16:19:00,90.4,78.0,30.21,WSW,247,2.0,4.0,67,0.00,,,0.00,645,weatherlink.com 1.10,2013-07-16 21:19:00,
2013-07-16 16:49:00,90.4,77.0,30.20,SSE,160,1.0,2.0,65,0.00,,,0.00,591,weatherlink.com 1.10,2013-07-16 21:49:00,
2013-07-16 17:04:00,90.6,77.0,30.20,SW,217,0.0,3.0,65,0.00,,,0.00,552,weatherlink.com 1.10,2013-07-16 22:04:00,
2013-07-16 17:19:00,90.4,77.0,30.20,WSW,242,2.0,6.0,65,0.00,,,0.00,492,weatherlink.com 1.10,2013-07-16 22:19:00,
2013-07-16 17:34:00,89.9,77.0,30.20,WSW,241,3.0,5.0,65,0.00,,,0.00,448,weatherlink.com 1.10,2013-07-16 22:34:00,
2013-07-16 17:49:00,89.9,78.0,30.20,WSW,244,1.0,4.0,68,0.00,,,0.00,399,weatherlink.com 1.10,2013-07-16 22:49:00,
2013-07-16 18:04:00,89.9,78.0,30.20,SW,236,0.0,6.0,67,0.00,,,0.00,359,weatherlink.com 1.10,2013-07-16 23:04:00,
2013-07-16 18:19:00,89.4,78.0,30.20,WSW,243,2.0,6.0,69,0.00,,,0.00,304,weatherlink.com 1.10,2013-07-16 23:19:00,
2013-07-16 18:34:00,89.0,78.0,30.20,SW,232,0.0,2.0,70,0.00,,,0.00,278,weatherlink.com 1.10,2013-07-16 23:34:00,
2013-07-16 18:49:00,89.1,78.0,30.20,SSW,210,0.0,2.0,69,0.00,,,0.00,230,weatherlink.com 1.10,2013-07-16 23:49:00,
2013-07-16 19:04:00,88.8,78.0,30.20,SSW,210,1.0,2.0,70,0.00,,,0.00,181,weatherlink.com 1.10,2013-07-17 00:04:00,
2013-07-16 19:19:00,88.5,78.0,30.20,SSW,210,0.0,2.0,71,0.00,,,0.00,134,weatherlink.com 1.10,2013-07-17 00:19:00,
2013-07-16 19:34:00,87.6,78.0,30.20,SSW,210,0.0,1.0,72,0.00,,,0.00,90,weatherlink.com 1.10,2013-07-17 00:34:00,
2013-07-16 19:49:00,86.8,77.0,30.20,SSW,210,1.0,1.0,72,0.00,,,0.00,54,weatherlink.com 1.10,2013-07-17 00:49:00,
2013-07-16 20:04:00,85.8,77.0,30.20,SSW,210,0.0,1.0,75,0.00,,,0.00,28,weatherlink.com 1.10,2013-07-17 01:04:00,
2013-07-16 20:19:00,85.4,77.0,30.20,SSW,210,0.0,0.0,76,0.00,,,0.00,11,weatherlink.com 1.10,2013-07-17 01:19:00,
2013-07-16 20:34:00,84.8,77.0,30.20,SSW,210,0.0,0.0,77,0.00,,,0.00,0,weatherlink.com 1.10,2013-07-17 01:34:00,
2013-07-16 20:49:00,83.4,77.0,30.20,SSW,210,0.0,0.0,80,0.00,,,0.00,0,weatherlink.com 1.10,2013-07-17 01:49:00,
2013-07-16 21:04:00,82.3,76.0,30.20,SSW,210,0.0,0.0,81,0.00,,,0.00,0,weatherlink.com 1.10,2013-07-17 02:04:00,
2013-07-16 21:19:00,81.2,76.0,30.21,SSW,210,0.0,0.0,83,0.00,,,0.00,0,weatherlink.com 1.10,2013-07-17 02:19:00,
2013-07-16 21:34:00,80.0,75.0,30.22,SSW,210,0.0,0.0,85,0.00,,,0.00,0,weatherlink.com 1.10,2013-07-17 02:34:00,
2013-07-16 21:49:00,78.8,75.0,30.22,SSW,210,0.0,0.0,87,0.00,,,0.00,0,weatherlink.com 1.10,2013-07-17 02:49:00,
2013-07-16 22:04:00,78.2,75.0,30.23,SSW,210,0.0,0.0,89,0.00,,,0.00,0,weatherlink.com 1.10,2013-07-17 03:04:00,
2013-07-16 22:19:00,77.7,75.0,30.23,SSW,210,0.0,0.0,90,0.00,,,0.00,0,weatherlink.com 1.10,2013-07-17 03:19:00,
2013-07-16 22:34:00,77.3,75.0,30.23,SSW,210,0.0,0.0,91,0.00,,,0.00,0,weatherlink.com 1.10,2013-07-17 03:34:00,
2013-07-16 22:49:00,76.8,74.0,30.23,SSW,210,0.0,0.0,91,0.00,,,0.00,0,weatherlink.com 1.10,2013-07-17 03:49:00,
2013-07-16 23:05:00,76.3,74.0,30.23,SSW,210,0.0,0.0,92,0.00,,,0.00,0,weatherlink.com 1.10,2013-07-17 04:05:00,
2013-07-16 23:20:00,76.0,74.0,30.23,SSW,210,0.0,0.0,93,0.00,,,0.00,0,weatherlink.com 1.10,2013-07-17 04:20:00,
2013-07-16 23:35:00,76.4,74.0,30.23,SSW,210,0.0,1.0,93,0.00,,,0.00,0,weatherlink.com 1.10,2013-07-17 04:35:00,
2013-07-16 23:50:00,76.4,74.0,30.24,SSW,210,0.0,0.0,93,0.00,,,0.00,0,weatherlink.com 1.10,2013-07-17 04:50:00,